Location: Fauquembergues
(50.6005°N, 2.0987°E)
Time: 04:23:07
(UTC+00:00)

USA 215 - Pass Details

Date: 14 July 2020
Orbit: 1102 x 1106 km, 123.0° (Epoch: 31 July)

Event Time Altitude Azimuth Distance (km) Brightness Sun altitude
Rises 01:34:44 0° 70° (ENE) 3,925 6.8 -14.7°
Reaches altitude 10° 01:37:16 10° 66° (ENE) 2,966 6.2 -14.5°
Maximum altitude 01:43:35 53° 352° (N) 1,331 4.0 -14.1°
Drops below altitude 10° 01:49:54 10° 278° (W) 2,963 5.3 -13.6°
Sets 01:52:26 0° 274° (W) 3,920 5.9 -13.5°
